Regional Weather Roundup
Issued by NWS Newport/Morehead, NC

Home | Current Version | Previous Version | Text Only | Print | Product List | Glossary On
Versions: 1 2 3 4 5 6 7 8 9 10 11 12 13 14 15 16 17 18 19 20 21 22 23 24 25 26 27 28 29 30 31 32 33 34 35 36 37 38 39 40 41 42 43 44 45 46 47 48 49 50
000
ASUS42 KMHX 250125
RWRMHX
WEATHER ROUNDUP FOR EASTERN NORTH CAROLINA
NATIONAL WEATHER SERVICE NEWPORT/MOREHEAD CITY NC
900 PM EDT MON APR 24 2017

NOTE: "FAIR" INDICATES FEW OR NO CLOUDS BELOW 12,000 FEET
WITH NO SIGNIFICANT WEATHER AND/OR OBSTRUCTIONS TO VISIBILITY

NCZ015>017-031-032-045>047-102-103-250200-
NORTH COAST

CITY           SKY/WX    TMP DP  RH WIND       PRES   REMARKS
EDENTON        CLOUDY    70  62  76 E12       29.78S
ELIZABETH CITY MOCLDY    68  62  81 E15       29.81R
KITTY HAWK     CLOUDY    64  57  77 E9        29.79F
MANTEO         CLOUDY    67  57  71 SE14      29.80S

$$

NCZ045>047-081-094-103-104-250200-
CENTRAL COAST

CITY           SKY/WX    TMP DP  RH WIND       PRES   REMARKS
FRISCO         LGT RAIN  71  63  75 SE26G38   29.75R

$$

NCZ095-097-098-100-101-250200-
SOUTHERN COAST

CITY           SKY/WX    TMP DP  RH WIND       PRES   REMARKS
BEAUFORT       CLOUDY    71  67  87 SE15G24   29.67S
CEDAR ISLAND   NOT AVBL
JACKSONVILLE   CLOUDY    69  68  96 E18G26    29.63F
PINEY ISLAND   CLOUDY   N/A N/A N/A SE20G25   29.69S
WILMINGTON     CLOUDY    66  66 100 CALM      29.62S


$$

NCZ011>013-027>030-043-044-078>080-089-090>093-098-250200-
COASTAL PLAIN

CITY           SKY/WX    TMP DP  RH WIND       PRES   REMARKS
AHOSKIE          N/A     62  62  97 N10       29.79S
CLINTON        RAIN      65  65 100 CALM      29.65S
ELIZABETHTOWN  LGT RAIN  59  59 100 NW7       29.64F
GOLDSBORO      LGT RAIN  64  64 100 NE20G25   29.65S FOG
GREENVILLE     RAIN      64  64 100 E12       29.74F
HAVELOCK       FOG       69  65  86 E12       29.68S VSB 1/2
KENANSVILLE    RAIN      66  64  94 CALM      29.65S FOG
KINSTON        HVY RAIN  66  64  94 E14       29.68F
NEW BERN       LGT RAIN  67  67 100 SE10      29.69S
RICHLANDS      RAIN      68  66  94 E12       29.64F FOG
ROCKY MOUNT    RAIN      65  65 100 NE10G24   29.72S FOG
WASHINGTON     HVY RAIN  64  64  97 E14G20    29.72F
WHITEVILLE     LGT RAIN  60  59  96 NE5       29.62S

$$

AMZ130-135-150-152-154-156-158-170-250-252-270-ANZ085-086-088-633-658-670-250200-
MARINE OBSERVATIONS

STATION/POSITION TIME  TEMP    WIND        PRES    WAVE   SWELL
                       AIR SEA DIR/SP/G            HT/PER HT/PER
                 (UTC) (F)     (DEG/KT/KT) (MB)    (FT/S) (FT/S)
CHESAPEAKE LIGHT NOT AVBL
64 E VA BEACH    0050   61 54   90/ 10/ 12 1011.5    7/ 7   7/ 7
DUCK             0100   63 59   90/ 18/ 21 1009.0
2 E DUCK         0100      60                N/A     6/ 8   2/11
OREGON INLET     0100   65 61   80/ 10/ 17 1008.5
13E OREGON INLT  0048      56                N/A    10/ 8  10/ 8
HATTERAS CG      0100   72 67  120/ 22/ 32 1006.7
DIAMOND BUOY     0050   75 78  120/ 31/ 37 1006.1   13/ 9
CAPE LOOKOUT     0100   72     120/ 24/ 27 1004.1
BEAUFORT LAB     0100   71 64  130/ 19/ 26 1003.7
30 SE NEW RVR IN 0108   72     140/ 17/ 25 1003.7
30 SE NEW RVR IN 0113      71                N/A    13/ 9   5/11
27 SE WRIGHTSVLE 0108   66 72  170/ 12/ 16 1003.2
5 SE WRIGHTSVLE  0108   68 69  190/ 10/ 17 1003.7
225 S CAPE HAT   0050   74 75  200/ 17/ 21 1002.0   15/10  11/10
41 SE CHARLESTON 0050   72 72  220/ 12/ 16 1002.8    7/ 8   5/ 8

$$




USA.gov is the U.S. government's official web portal to all federal, state and local government web resources and services.